NOZ6M ENTC-ENKR

Flight info

Callsign NOZ6M
Flight time 0h 46m
Altitude 33000
Route ERPUG DCT TINOS DCT VADLA
Aircraft B738/M-SDE2E3FGHIRWXY/LB1

Departure

Time 2026-04-17 21:10
Airport Tromsø Airport (ENTC)

Arrival

Time 2026-04-17 21:57
Airport Kirkenes Airport, Høybuktmoen (ENKR)
Time Latitude Longitude Altitude Speed Heading
2026-04-17 20:43 69.67979 18.90927 36 ft 0 kts 283°
2026-04-17 21:02 69.67978 18.90938 37 ft 3 kts 283°
2026-04-17 21:02 69.67971 18.91013 35 ft 4 kts 286°
2026-04-17 21:02 69.67963 18.91087 32 ft 4 kts 290°
2026-04-17 21:02 69.67952 18.91158 33 ft 4 kts 300°
2026-04-17 21:03 69.67937 18.91217 34 ft 4 kts 332°
2026-04-17 21:03 69.67924 18.91228 35 ft 1 kts 13°
2026-04-17 21:05 69.67928 18.91231 34 ft 1 kts 13°
2026-04-17 21:06 69.67942 18.91240 35 ft 3 kts 13°
2026-04-17 21:06 69.67966 18.91257 33 ft 4 kts 13°
2026-04-17 21:06 69.68002 18.91281 33 ft 7 kts 13°
2026-04-17 21:06 69.68064 18.91344 30 ft 11 kts 43°
2026-04-17 21:07 69.68066 18.91561 31 ft 11 kts 104°
2026-04-17 21:07 69.68029 18.91660 33 ft 11 kts 167°
2026-04-17 21:07 69.67924 18.91614 36 ft 13 kts 192°
2026-04-17 21:07 69.67822 18.91549 39 ft 16 kts 194°
2026-04-17 21:08 69.67696 18.91459 38 ft 21 kts 194°
2026-04-17 21:08 69.67598 18.91390 40 ft 22 kts 192°
2026-04-17 21:08 69.67492 18.91368 39 ft 8 kts 217°
2026-04-17 21:08 69.67495 18.91325 38 ft 3 kts
2026-04-17 21:09 69.67521 18.91337 39 ft 5 kts 14°
2026-04-17 21:09 69.67567 18.91373 41 ft 9 kts 15°
2026-04-17 21:09 69.67652 18.91434 39 ft 16 kts 13°
2026-04-17 21:09 69.67978 18.91655 36 ft 88 kts 13°
2026-04-17 21:10 69.68830 18.92216 21 ft 159 kts 13°
2026-04-17 21:10 69.70000 18.92978 560 ft 175 kts 13°
2026-04-17 21:10 69.71202 18.93757 1476 ft 188 kts 13°
2026-04-17 21:10 69.72583 18.94667 1965 ft 213 kts 13°
2026-04-17 21:11 69.74020 18.96022 2508 ft 229 kts 30°
2026-04-17 21:11 69.75177 18.99329 3035 ft 239 kts 64°
2026-04-17 21:11 69.75516 19.03930 3905 ft 237 kts 94°
2026-04-17 21:11 69.75401 19.08696 4672 ft 242 kts 81°
2026-04-17 21:12 69.76130 19.13078 5354 ft 253 kts 53°
2026-04-17 21:12 69.77193 19.17328 6068 ft 265 kts 56°
2026-04-17 21:12 69.78192 19.21873 6990 ft 270 kts 58°
2026-04-17 21:12 69.79158 19.26557 7929 ft 273 kts 59°
2026-04-17 21:13 69.80016 19.31462 8847 ft 276 kts 74°
2026-04-17 21:13 69.80158 19.37034 9807 ft 280 kts 90°
2026-04-17 21:13 69.80095 19.42711 10635 ft 286 kts 91°
2026-04-17 21:13 69.80018 19.48701 10946 ft 311 kts 91°
2026-04-17 21:14 69.79936 19.55203 11281 ft 332 kts 91°
2026-04-17 21:14 69.79852 19.61980 11989 ft 340 kts 91°
2026-04-17 21:14 69.79770 19.68761 12831 ft 344 kts 91°
2026-04-17 21:14 69.79687 19.75692 13684 ft 347 kts 90°
2026-04-17 21:15 69.79605 19.82734 14464 ft 352 kts 90°
2026-04-17 21:15 69.79518 19.89857 15068 ft 356 kts 90°
2026-04-17 21:15 69.79426 19.97026 15337 ft 358 kts 90°
2026-04-17 21:15 69.79471 20.04226 15330 ft 357 kts 83°
2026-04-17 21:16 69.79810 20.11310 15341 ft 355 kts 79°
2026-04-17 21:16 69.80243 20.18367 15341 ft 355 kts 78°
2026-04-17 21:16 69.80688 20.25402 15342 ft 356 kts 78°
2026-04-17 21:16 69.81120 20.32464 15337 ft 356 kts 79°
2026-04-17 21:17 69.81534 20.39534 15342 ft 356 kts 79°
2026-04-17 21:17 69.81936 20.46661 15504 ft 361 kts 79°
2026-04-17 21:17 69.82331 20.53877 16250 ft 363 kts 79°
2026-04-17 21:17 69.82718 20.61091 17141 ft 362 kts 79°
2026-04-17 21:18 69.83102 20.68347 17901 ft 366 kts 80°
2026-04-17 21:18 69.83486 20.75692 18605 ft 371 kts 80°
2026-04-17 21:18 69.83870 20.83113 19227 ft 374 kts 80°
2026-04-17 21:18 69.84254 20.90595 19972 ft 374 kts 80°
2026-04-17 21:19 69.84630 20.98007 20859 ft 369 kts 80°
2026-04-17 21:19 69.84999 21.05339 21753 ft 365 kts 79°
2026-04-17 21:19 69.85363 21.12615 22552 ft 363 kts 79°
2026-04-17 21:19 69.85722 21.19861 23325 ft 363 kts 79°
2026-04-17 21:20 69.86073 21.26987 24082 ft 361 kts 79°
2026-04-17 21:20 69.86429 21.34254 24823 ft 356 kts 78°
2026-04-17 21:20 69.86768 21.41270 25195 ft 354 kts 78°
2026-04-17 21:20 69.87107 21.48338 25341 ft 356 kts 79°
2026-04-17 21:21 69.87344 21.55506 25353 ft 356 kts 82°
2026-04-17 21:21 69.87517 21.62674 25343 ft 356 kts 82°
2026-04-17 21:21 69.87684 21.69839 25345 ft 355 kts 82°
2026-04-17 21:21 69.87848 21.76990 25352 ft 355 kts 82°
2026-04-17 21:22 69.88010 21.84163 25352 ft 355 kts 82°
2026-04-17 21:22 69.88171 21.91325 25360 ft 355 kts 83°
2026-04-17 21:22 69.88324 21.98468 25364 ft 355 kts 84°
2026-04-17 21:22 69.88383 22.05676 25357 ft 356 kts 86°
2026-04-17 21:23 69.88379 22.12871 25372 ft 357 kts 86°
2026-04-17 21:23 69.88356 22.20082 25356 ft 357 kts 86°
2026-04-17 21:23 69.88331 22.27294 25378 ft 357 kts 86°
2026-04-17 21:23 69.88307 22.34516 25386 ft 357 kts 86°
2026-04-17 21:24 69.88286 22.41726 25373 ft 357 kts 86°
2026-04-17 21:24 69.88266 22.48944 25404 ft 357 kts 86°
2026-04-17 21:24 69.88247 22.56182 25392 ft 357 kts 85°
2026-04-17 21:24 69.88228 22.63295 25390 ft 357 kts 85°
2026-04-17 21:25 69.88203 22.70597 25396 ft 356 kts 86°
2026-04-17 21:25 69.88177 22.77690 25391 ft 355 kts 86°
2026-04-17 21:25 69.88149 22.84846 25399 ft 355 kts 86°
2026-04-17 21:25 69.88119 22.92015 25408 ft 355 kts 86°
2026-04-17 21:26 69.88086 22.99174 25395 ft 355 kts 86°
2026-04-17 21:26 69.88051 23.06345 25403 ft 354 kts 86°
2026-04-17 21:26 69.88012 23.13489 25399 ft 354 kts 86°
2026-04-17 21:26 69.87971 23.20652 25398 ft 354 kts 86°
2026-04-17 21:27 69.87924 23.27800 25403 ft 354 kts 86°
2026-04-17 21:27 69.87877 23.34948 25401 ft 354 kts 86°
2026-04-17 21:27 69.87828 23.42097 25400 ft 354 kts 86°
2026-04-17 21:27 69.87776 23.49244 25403 ft 354 kts 86°
2026-04-17 21:28 69.87721 23.56399 25398 ft 354 kts 86°
2026-04-17 21:28 69.87663 23.63550 25437 ft 355 kts 86°
2026-04-17 21:28 69.87601 23.70728 25417 ft 355 kts 86°
2026-04-17 21:28 69.87536 23.77877 25415 ft 355 kts 86°
2026-04-17 21:29 69.87469 23.85035 25407 ft 354 kts 86°
2026-04-17 21:29 69.87399 23.92172 25407 ft 354 kts 86°
2026-04-17 21:29 69.87325 23.99317 25412 ft 353 kts 86°
2026-04-17 21:29 69.87249 24.06450 25409 ft 353 kts 86°
2026-04-17 21:30 69.87172 24.13490 25423 ft 353 kts 86°
2026-04-17 21:30 69.87090 24.20606 25419 ft 353 kts 86°
2026-04-17 21:30 69.87006 24.27737 25418 ft 353 kts 86°
2026-04-17 21:30 69.86919 24.34861 25417 ft 353 kts 86°
2026-04-17 21:31 69.86829 24.41978 25427 ft 353 kts 86°
2026-04-17 21:31 69.86736 24.49101 25413 ft 353 kts 86°
2026-04-17 21:31 69.86641 24.56229 25436 ft 353 kts 86°
2026-04-17 21:31 69.86542 24.63363 25431 ft 353 kts 86°
2026-04-17 21:32 69.86440 24.70493 25433 ft 354 kts 86°
2026-04-17 21:32 69.86336 24.77609 25450 ft 354 kts 86°
2026-04-17 21:32 69.86229 24.84746 25433 ft 354 kts 86°
2026-04-17 21:32 69.86116 24.91879 25427 ft 353 kts 86°
2026-04-17 21:33 69.86002 24.99022 25420 ft 353 kts 86°
2026-04-17 21:33 69.85887 25.06123 25419 ft 352 kts 86°
2026-04-17 21:33 69.85769 25.13205 25419 ft 351 kts 86°
2026-04-17 21:33 69.85650 25.20184 25423 ft 351 kts 86°
2026-04-17 21:34 69.85527 25.27247 25416 ft 350 kts 86°
2026-04-17 21:34 69.85401 25.34306 25419 ft 350 kts 86°
2026-04-17 21:34 69.85141 25.48279 25135 ft 342 kts 86°
2026-04-17 21:35 69.85009 25.55135 24818 ft 340 kts 86°
2026-04-17 21:35 69.84876 25.61958 24487 ft 337 kts 87°
2026-04-17 21:35 69.84742 25.68711 24154 ft 335 kts 87°
2026-04-17 21:35 69.84607 25.75429 23779 ft 333 kts 87°
2026-04-17 21:36 69.84470 25.82105 23384 ft 330 kts 87°
2026-04-17 21:36 69.84331 25.88723 23075 ft 327 kts 87°
2026-04-17 21:36 69.84190 25.95287 22708 ft 325 kts 87°
2026-04-17 21:36 69.84046 26.01797 22370 ft 322 kts 87°
2026-04-17 21:37 69.83906 26.08176 22027 ft 319 kts 87°
2026-04-17 21:37 69.83763 26.14580 21696 ft 317 kts 87°
2026-04-17 21:37 69.83619 26.20918 21358 ft 314 kts 87°
2026-04-17 21:37 69.83473 26.27216 21037 ft 312 kts 88°
2026-04-17 21:38 69.83327 26.33473 20712 ft 310 kts 88°
2026-04-17 21:38 69.83179 26.39685 20399 ft 308 kts 88°
2026-04-17 21:38 69.83029 26.45864 20072 ft 307 kts 88°
2026-04-17 21:38 69.82878 26.52024 19755 ft 306 kts 88°
2026-04-17 21:39 69.82726 26.58154 19435 ft 304 kts 88°
2026-04-17 21:39 69.82572 26.64261 19116 ft 303 kts 88°
2026-04-17 21:39 69.82416 26.70336 18796 ft 302 kts 89°
2026-04-17 21:39 69.82258 26.76407 18444 ft 301 kts 89°
2026-04-17 21:40 69.82100 26.82441 18102 ft 300 kts 89°
2026-04-17 21:40 69.81939 26.88449 17767 ft 298 kts 89°
2026-04-17 21:40 69.81778 26.94402 17455 ft 296 kts 89°
2026-04-17 21:40 69.81618 27.00241 17175 ft 293 kts 89°
2026-04-17 21:41 69.81456 27.06105 16847 ft 291 kts 89°
2026-04-17 21:41 69.81292 27.11934 16537 ft 290 kts 89°
2026-04-17 21:41 69.81128 27.17725 16233 ft 288 kts 89°
2026-04-17 21:41 69.80963 27.23481 15925 ft 286 kts 90°
2026-04-17 21:42 69.80797 27.29216 15629 ft 285 kts 90°
2026-04-17 21:42 69.80630 27.34926 15325 ft 284 kts 90°
2026-04-17 21:42 69.80461 27.40611 15036 ft 283 kts 90°
2026-04-17 21:42 69.80291 27.46290 14727 ft 282 kts 90°
2026-04-17 21:43 69.80120 27.51928 14426 ft 281 kts 90°
2026-04-17 21:43 69.79948 27.57542 14110 ft 280 kts 91°
2026-04-17 21:43 69.79775 27.63140 13776 ft 279 kts 91°
2026-04-17 21:43 69.79601 27.68698 13470 ft 277 kts 91°
2026-04-17 21:44 69.79427 27.74219 13172 ft 275 kts 91°
2026-04-17 21:44 69.79251 27.79722 12873 ft 273 kts 91°
2026-04-17 21:44 69.79075 27.85186 12585 ft 272 kts 91°
2026-04-17 21:44 69.78900 27.90547 12289 ft 271 kts 92°
2026-04-17 21:45 69.78723 27.95950 11998 ft 269 kts 92°
2026-04-17 21:45 69.78545 28.01329 11710 ft 268 kts 92°
2026-04-17 21:45 69.78365 28.06679 11430 ft 267 kts 92°
2026-04-17 21:45 69.78186 28.12001 11151 ft 266 kts 92°
2026-04-17 21:46 69.78005 28.17305 10861 ft 265 kts 92°
2026-04-17 21:46 69.77823 28.22593 10623 ft 262 kts 92°
2026-04-17 21:46 69.77643 28.27750 10502 ft 254 kts 92°
2026-04-17 21:46 69.77467 28.32790 10284 ft 251 kts 92°
2026-04-17 21:47 69.77290 28.37813 10002 ft 250 kts 92°
2026-04-17 21:47 69.77113 28.42787 9734 ft 248 kts 93°
2026-04-17 21:47 69.76936 28.47730 9480 ft 247 kts 93°
2026-04-17 21:47 69.76757 28.52709 9213 ft 251 kts 93°
2026-04-17 21:48 69.76573 28.57806 8954 ft 258 kts 93°
2026-04-17 21:48 69.76383 28.63002 8681 ft 262 kts 94°
2026-04-17 21:48 69.76189 28.68220 8387 ft 261 kts 94°
2026-04-17 21:48 69.75995 28.73413 8104 ft 259 kts 94°
2026-04-17 21:49 69.75803 28.78508 7828 ft 258 kts 94°
2026-04-17 21:49 69.75609 28.83626 7560 ft 256 kts 94°
2026-04-17 21:49 69.75414 28.88725 7295 ft 254 kts 94°
2026-04-17 21:49 69.75220 28.93794 7032 ft 253 kts 94°
2026-04-17 21:50 69.75025 28.98887 6474 ft 261 kts 95°
2026-04-17 21:50 69.74820 29.04144 6057 ft 264 kts 95°
2026-04-17 21:50 69.74611 29.09412 5728 ft 263 kts 95°
2026-04-17 21:50 69.74403 29.14622 5530 ft 257 kts 96°
2026-04-17 21:51 69.73889 29.19468 5382 ft 252 kts 121°
2026-04-17 21:51 69.72657 29.23009 5139 ft 252 kts 146°
2026-04-17 21:51 69.71099 29.25173 5032 ft 245 kts 156°
2026-04-17 21:51 69.69534 29.26920 4910 ft 238 kts 157°
2026-04-17 21:52 69.68521 29.28033 4847 ft 233 kts 157°
2026-04-17 21:52 69.67034 29.29722 4738 ft 225 kts 150°
2026-04-17 21:52 69.65809 29.33975 4585 ft 205 kts 101°
2026-04-17 21:52 69.65703 29.36726 4414 ft 207 kts 86°
2026-04-17 21:53 69.66186 29.41998 4135 ft 207 kts 68°
2026-04-17 21:53 69.66719 29.45825 3892 ft 206 kts 68°
2026-04-17 21:53 69.67245 29.49643 3653 ft 203 kts 68°
2026-04-17 21:53 69.67753 29.53365 3394 ft 196 kts 68°
2026-04-17 21:54 69.68081 29.55776 3200 ft 188 kts 68°
2026-04-17 21:54 69.68533 29.59111 3032 ft 168 kts 68°
2026-04-17 21:54 69.68951 29.62202 2654 ft 163 kts 68°
2026-04-17 21:54 69.69360 29.65148 2384 ft 153 kts 67°
2026-04-17 21:55 69.69752 29.68004 2145 ft 155 kts 68°
2026-04-17 21:55 69.70132 29.70845 1863 ft 152 kts 68°
2026-04-17 21:55 69.70503 29.73647 1611 ft 146 kts 68°
2026-04-17 21:55 69.70848 29.76266 1389 ft 136 kts 68°
2026-04-17 21:56 69.71191 29.78856 1111 ft 139 kts 68°
2026-04-17 21:56 69.71542 29.81514 861 ft 143 kts 68°
2026-04-17 21:56 69.71910 29.84266 534 ft 159 kts 66°
2026-04-17 21:56 69.72330 29.87366 353 ft 159 kts 69°
2026-04-17 21:57 69.72691 29.90115 294 ft 121 kts 70°
2026-04-17 21:57 69.72818 29.91011 296 ft 6 kts 41°
2026-04-17 21:57 69.72814 29.91072 295 ft 3 kts 155°
2026-04-17 21:57 69.72788 29.90957 294 ft 14 kts 261°
2026-04-17 21:58 69.72746 29.90554 295 ft 28 kts 249°
2026-04-17 21:58 69.72674 29.89998 295 ft 30 kts 250°
2026-04-17 21:58 69.72598 29.89473 296 ft 19 kts 226°
2026-04-17 21:58 69.72500 29.89405 294 ft 12 kts 247°
2026-04-17 21:59 69.72474 29.89171 297 ft 12 kts 251°
2026-04-17 21:59 69.72436 29.88966 295 ft 12 kts 221°
2026-04-17 21:59 69.72373 29.88825 295 ft 11 kts 202°
2026-04-17 21:59 69.72324 29.88647 295 ft 11 kts 238°
2026-04-17 22:00 69.72285 29.88455 297 ft 11 kts 243°
2026-04-17 22:00 69.72254 29.88256 294 ft 11 kts 242°
2026-04-17 22:00 69.72218 29.88225 295 ft 6 kts 171°
2026-04-17 22:00 69.72193 29.88252 296 ft 0 kts 160°